CW1621 Weather Reports


Display with metric or nautical units.
time (UTC)temp
F
wind
direction
speed
MPH
gust
MPH
rain 1hr
in
rain 24hr
in
rain mn
in
humidity
%
barometer
mb
20181022054103 42 337 0.0 0.0 0.00 0.00 0.00 63 1020.1
20181022053603 42 337 0.0 0.0 0.00 0.00 0.00 63 1020.1
20181022053103 42 337 1.0 2.0 0.00 0.00 0.00 63 1020.1
20181022051604 43 337 2.0 3.0 0.00 0.00 0.00 63 1020.1
20181022051103 43 337 0.0 0.0 0.00 0.00 0.00 64 1020.8
20181022050603 42 337 0.0 0.0 0.00 0.00 0.00 63 1021.1
20181022050104 43 337 0.0 2.0 0.00 0.00 0.00 61 1020.8
20181022044603 45 337 0.0 0.0 0.00 0.00 0.00 64 1020.5
20181022044103 44 337 0.0 0.0 0.00 0.00 0.00 65 1020.7
20181022043603 44 337 0.0 0.0 0.00 0.00 0.00 64 1020.7
20181022043103 45 337 0.0 0.0 0.00 0.00 0.00 59 1020.4
20181022041606 47 337 0.0 3.0 0.00 0.00 0.00 59 1020.1
20181022041103 47 337 2.0 5.0 0.00 0.00 0.00 60 1020.9
20181022040603 45 337 3.0 5.0 0.00 0.00 0.00 65 1021.0
20181022040103 44 337 0.0 0.0 0.00 0.00 0.00 62 1021.2
20181022034603 45 337 0.0 0.0 0.00 0.00 0.00 60 1021.0
20181022034103 46 337 0.0 0.0 0.00 0.00 0.00 58 1020.8
20181022033603 47 337 0.0 0.0 0.00 0.00 0.00 58 1020.8
20181022033103 47 337 0.0 0.0 0.00 0.00 0.00 58 1020.6
20181022031604 46 337 0.0 0.0 0.00 0.00 0.00 58 1020.8
20181022031103 47 337 0.0 3.0 0.00 0.00 0.00 57 1021.3
20181022030603 48 337 2.0 3.0 0.00 0.00 0.00 56 1021.3
20181022030104 50 337 2.0 3.0 0.00 0.00 0.00 54 1021.0
20181022024603 51 337 2.0 3.0 0.00 0.00 0.00 52 1020.8
20181022024103 52 337 3.0 5.0 0.00 0.00 0.00 53 1020.9
20181022023603 52 337 1.0 3.0 0.00 0.00 0.00 51 1020.9
20181022023103 51 337 2.0 3.0 0.00 0.00 0.00 53 1021.0
20181022021604 50 337 0.0 0.0 0.00 0.00 0.00 52 1021.1
20181022021103 50 337 0.0 0.0 0.00 0.00 0.00 52 1020.7
20181022020604 51 337 0.0 0.0 0.00 0.00 0.00 51 1020.6
20181022020114 52 337 0.0 0.0 0.00 0.00 0.00 50 1020.3
20181022014604 53 337 0.0 0.0 0.00 0.00 0.00 49 1020.4
20181022014103 53 337 0.0 0.0 0.00 0.00 0.00 49 1020.3
20181022013603 54 337 0.0 0.0 0.00 0.00 0.00 49 1020.1
20181022013103 54 337 0.0 1.0 0.00 0.00 0.00 50 1020.0
20181022011604 55 337 1.0 3.0 0.00 0.00 0.00 48 1020.0
20181022011103 56 337 2.0 3.0 0.00 0.00 0.00 48 1019.5
20181022010603 56 337 3.0 5.0 0.00 0.00 0.00 47 1019.4
20181022010104 57 337 3.0 3.0 0.00 0.00 0.00 45 1019.5
20181022004603 60 337 0.0 0.0 0.00 0.00 0.00 41 1019.0
20181022004103 60 337 0.0 0.0 0.00 0.00 0.00 41 1019.0
20181022003603 61 337 0.0 0.0 0.00 0.00 0.00 42 1019.0
20181022003103 60 337 0.0 3.0 0.00 0.00 0.00 42 1018.9
20181022001604 62 337 0.0 2.0 0.00 0.00 0.00 41 1018.6
20181022001104 63 337 0.0 2.0 0.00 0.00 0.00 40 1018.3
20181022000603 64 337 0.0 0.0 0.00 0.00 0.00 40 1018.2
20181022000103 64 337 0.0 3.0 0.00 0.00 0.00 40 1018.3
20181021234604 69 337 0.0 3.0 0.00 0.00 0.00 34 1017.4
20181021234103 71 337 0.0 2.0 0.00 0.00 0.00 34 1017.2
20181021233603 72 337 1.0 3.0 0.00 0.00 0.00 32 1017.2
20181021233103 72 337 0.0 3.0 0.00 0.00 0.00 32 1017.2
20181021231603 72 337 0.0 3.0 0.00 0.00 0.00 32 1017.2
20181021231103 72 337 1.0 3.0 0.00 0.00 0.00 32 1017.7
20181021230603 73 337 0.0 2.0 0.00 0.00 0.00 32 1017.4
20181021230104 73 337 0.0 3.0 0.00 0.00 0.00 32 1017.5
20181021224604 72 337 0.0 3.0 0.00 0.00 0.00 33 1017.8
20181021224131 72 337 1.0 3.0 0.00 0.00 0.00 33 1017.8
20181021223604 72 337 1.0 3.0 0.00 0.00 0.00 33 1017.9
20181021223103 72 337 1.0 6.0 0.00 0.00 0.00 33 1017.9
20181021221603 73 341 1.0 3.0 0.00 0.00 0.00 33 1017.6
20181021221103 73 341 0.0 3.0 0.00 0.00 0.00 33 1017.6
20181021220603 73 341 0.0 3.0 0.00 0.00 0.00 33 1017.7
20181021220103 72 341 0.0 6.0 0.00 0.00 0.00 34 1018.0
20181021214604 71 11 1.0 3.0 0.00 0.00 0.00 35 1018.0
20181021214103 71 11 1.0 6.0 0.00 0.00 0.00 34 1018.2
20181021213603 69 10 2.0 3.0 0.00 0.00 0.00 35 1018.3
20181021213102 69 10 3.0 7.0 0.00 0.00 0.00 34 1018.4
20181021211604 69 19 1.0 6.0 0.00 0.00 0.00 35 1018.5
20181021211103 69 19 1.0 7.0 0.00 0.00 0.00 37 1018.2
20181021210603 69 14 2.0 6.0 0.00 0.00 0.00 37 1018.2
20181021210104 69 13 3.0 9.0 0.00 0.00 0.00 36 1018.2
20181021204608 70 20 2.0 6.0 0.00 0.00 0.00 36 1018.1
20181021204103 69 22 2.0 6.0 0.00 0.00 0.00 37 1018.4
20181021203603 68 30 3.0 6.0 0.00 0.00 0.00 35 1018.5
20181021203105 67 34 1.0 7.0 0.00 0.00 0.00 35 1018.8
20181021201603 67 73 2.0 5.0 0.00 0.00 0.00 35 1018.9
20181021201103 66 78 1.0 3.0 0.00 0.00 0.00 36 1019.0
20181021200604 65 78 1.0 5.0 0.00 0.00 0.00 37 1019.1
20181021200103 65 78 0.0 3.0 0.00 0.00 0.00 36 1019.2
20181021194604 65 78 1.0 6.0 0.00 0.00 0.00 37 1019.4
20181021194103 64 78 1.0 3.0 0.00 0.00 0.00 37 1019.3
20181021193603 64 78 1.0 5.0 0.00 0.00 0.00 38 1019.4
20181021193103 65 78 2.0 3.0 0.00 0.00 0.00 37 1019.5
20181021191604 65 78 0.0 3.0 0.00 0.00 0.00 38 1019.6
20181021191104 64 78 1.0 3.0 0.00 0.00 0.00 39 1019.9
20181021190604 63 78 0.0 3.0 0.00 0.00 0.00 40 1020.1
20181021190104 62 78 3.0 5.0 0.00 0.00 0.00 40 1020.2
20181021184604 61 79 1.0 3.0 0.00 0.00 0.00 41 1020.3
20181021184103 60 79 2.0 6.0 0.00 0.00 0.00 42 1020.5
20181021183603 60 90 3.0 5.0 0.00 0.00 0.00 41 1020.4
20181021183103 61 90 2.0 6.0 0.00 0.00 0.00 42 1020.4
20181021181606 61 116 2.0 3.0 0.00 0.00 0.00 42 1020.4
20181021181103 60 116 0.0 3.0 0.00 0.00 0.00 44 1020.7
20181021180603 58 115 1.0 3.0 0.00 0.00 0.00 45 1021.0
20181021180104 58 116 1.0 5.0 0.00 0.00 0.00 45 1021.0
20181021174603 57 116 2.0 5.0 0.00 0.00 0.00 45 1021.0
20181021174103 57 117 2.0 3.0 0.00 0.00 0.00 45 1021.1
20181021173603 56 117 1.0 3.0 0.00 0.00 0.00 46 1021.3
20181021173104 55 117 0.0 3.0 0.00 0.00 0.00 47 1021.4
20181021171605 53 117 1.0 3.0 0.00 0.00 0.00 49 1021.6
20181021171103 53 117 1.0 3.0 0.00 0.00 0.00 50 1021.6
20181021170603 53 117 1.0 3.0 0.00 0.00 0.00 51 1021.5
20181021170104 52 117 0.0 2.0 0.00 0.00 0.00 52 1021.8
20181021164605 51 80 0.0 0.0 0.00 0.00 0.00 54 1021.9
20181021164103 51 80 0.0 0.0 0.00 0.00 0.00 55 1021.9
20181021163604 50 80 0.0 0.0 0.00 0.00 0.00 56 1022.1
20181021163103 50 80 0.0 0.0 0.00 0.00 0.00 57 1022.1
20181021161606 48 80 0.0 0.0 0.00 0.00 0.00 58 1022.3
20181021161103 48 80 0.0 0.0 0.00 0.00 0.00 58 1022.3
20181021160603 48 80 0.0 0.0 0.00 0.00 0.00 59 1022.3
20181021160104 48 80 0.0 1.0 0.00 0.00 0.00 59 1022.3
20181021154604 47 159 0.0 0.0 0.00 0.00 0.00 57 1022.3
20181021154103 47 159 0.0 0.0 0.00 0.00 0.00 56 1022.4
20181021153603 47 159 0.0 0.0 0.00 0.00 0.00 57 1022.4
20181021153103 47 159 0.0 0.0 0.00 0.00 0.00 58 1022.3
20181021151604 44 159 0.0 0.0 0.00 0.00 0.00 61 1022.6
20181021151103 43 159 0.0 0.0 0.00 0.00 0.00 60 1022.3
20181021150603 43 159 0.0 0.0 0.00 0.00 0.00 59 1022.3
20181021150103 44 159 0.0 12.0 0.00 0.00 0.00 59 1021.9
20181021144604 46 174 0.0 0.0 0.00 0.00 0.00 55 1021.7
20181021144104 46 140 0.0 0.0 0.00 0.00 0.00 55 1021.7
20181021143603 46 159 0.0 0.0 0.00 0.00 0.00 55 1021.6
20181021143103 47 159 0.0 0.0 0.00 0.00 0.00 54 1021.6
20181021141604 47 159 0.0 0.0 0.00 0.00 0.00 55 1021.5
20181021141103 46 159 0.0 0.0 0.00 0.00 0.00 57 1021.0
20181021140603 45 159 0.0 0.0 0.00 0.00 0.00 58 1021.2
20181021140103 45 159 0.0 0.0 0.00 0.00 0.00 58 1021.1
20181021134604 45 158 0.0 0.0 0.00 0.00 0.00 57 1021.1
20181021134103 45 158 0.0 0.0 0.00 0.00 0.00 57 1021.0
20181021133604 46 158 0.0 0.0 0.00 0.00 0.00 56 1020.9
20181021133104 46 158 0.0 1.0 0.00 0.00 0.00 56 1021.0
20181021131604 48 158 0.0 1.0 0.00 0.00 0.00 52 1021.0
20181021131104 48 158 1.0 3.0 0.00 0.00 0.00 54 1020.4
20181021130604 45 157 1.0 3.0 0.00 0.00 0.00 58 1020.8
20181021130104 44 158 0.0 3.0 0.00 0.00 0.00 57 1020.9
20181021124604 46 141 3.0 3.0 0.00 0.00 0.00 55 1020.4
20181021124103 48 134 3.0 3.0 0.00 0.00 0.00 52 1020.2
20181021123603 48 128 1.0 3.0 0.00 0.00 0.00 52 1020.2
20181021123104 49 127 0.0 5.0 0.00 0.00 0.00 51 1020.4
20181021121604 49 119 1.0 3.0 0.00 0.00 0.00 53 1020.4
20181021121103 49 119 2.0 3.0 0.00 0.00 0.00 53 1019.6
20181021120604 49 119 2.0 3.0 0.00 0.00 0.00 53 1019.6
20181021120104 49 119 2.0 6.0 0.00 0.00 0.00 52 1019.6
20181021114604 47 117 5.0 5.0 0.00 0.00 0.00 56 1019.8
20181021114104 47 151 3.0 5.0 0.00 0.00 0.00 56 1019.8
20181021113603 46 150 5.0 7.0 0.00 0.00 0.00 57 1020.1
20181021113103 44 151 6.0 7.0 0.00 0.00 0.00 61 1020.5
20181021111604 44 151 1.0 3.0 0.00 0.00 0.00 58 1020.4
20181021111103 45 151 1.0 3.0 0.00 0.00 0.00 57 1019.9
20181021110604 45 151 0.0 0.0 0.00 0.00 0.00 57 1019.9
20181021110103 45 151 0.0 1.0 0.00 0.00 0.00 57 1020.0
20181021104604 44 151 0.0 0.0 0.00 0.00 0.00 58 1020.0
20181021104104 44 150 0.0 0.0 0.00 0.00 0.00 59 1020.1
20181021103603 43 151 0.0 0.0 0.00 0.00 0.00 61 1020.3
20181021103103 42 151 0.0 0.0 0.00 0.00 0.00 61 1020.3
20181021101604 45 150 0.0 0.0 0.00 0.00 0.00 57 1020.1
20181021101103 45 151 0.0 0.0 0.00 0.00 0.00 57 1020.1
20181021100603 45 151 0.0 0.0 0.00 0.00 0.00 56 1020.2
20181021100103 46 151 0.0 0.0 0.00 0.00 0.00 56 1019.9
20181021094603 46 152 0.0 0.0 0.00 0.00 0.00 55 1020.1
20181021094104 46 152 0.0 0.0 0.00 0.00 0.00 54 1020.1
20181021093603 47 152 0.0 0.0 0.00 0.00 0.00 54 1020.1
20181021093103 48 152 0.0 0.0 0.00 0.00 0.00 51 1019.9
20181021091603 48 152 0.0 0.0 0.00 0.00 0.00 53 1020.0
20181021091103 48 152 0.0 0.0 0.00 0.00 0.00 52 1020.3
20181021090603 48 152 0.0 0.0 0.00 0.00 0.00 52 1020.2
20181021090104 49 152 0.0 2.0 0.00 0.00 0.00 51 1020.1
20181021084604 47 152 0.0 0.0 0.00 0.00 0.00 53 1020.4
20181021084103 47 152 0.0 0.0 0.00 0.00 0.00 53 1020.5
20181021083604 47 152 0.0 0.0 0.00 0.00 0.00 53 1020.4
20181021083104 47 152 0.0 0.0 0.00 0.00 0.00 53 1020.4
20181021081603 48 152 0.0 0.0 0.00 0.00 0.00 52 1020.5
20181021081103 48 152 0.0 0.0 0.00 0.00 0.00 52 1020.7
20181021080603 48 152 0.0 0.0 0.00 0.00 0.00 52 1020.8
20181021080103 48 152 0.0 3.0 0.00 0.00 0.00 51 1020.7
20181021074604 47 152 0.0 0.0 0.00 0.00 0.00 53 1020.8
20181021074103 47 152 0.0 0.0 0.00 0.00 0.00 54 1020.9
20181021073604 47 152 0.0 0.0 0.00 0.00 0.00 54 1020.9
20181021073104 46 152 0.0 0.0 0.00 0.00 0.00 54 1020.9
20181021071605 47 152 1.0 3.0 0.00 0.00 0.00 52 1020.9
20181021071105 47 152 0.0 2.0 0.00 0.00 0.00 53 1021.1
20181021070603 47 152 0.0 0.0 0.00 0.00 0.00 53 1021.2
20181021070103 48 152 0.0 3.0 0.00 0.00 0.00 52 1020.9
20181021064603 49 152 0.0 1.0 0.00 0.00 0.00 50 1021.1
20181021064103 49 152 0.0 2.0 0.00 0.00 0.00 49 1021.1
20181021063603 50 152 0.0 0.0 0.00 0.00 0.00 49 1020.9
20181021063103 50 152 0.0 0.0 0.00 0.00 0.00 49 1020.9
20181021061605 48 152 0.0 0.0 0.00 0.00 0.00 51 1021.2
20181021061104 47 152 0.0 0.0 0.00 0.00 0.00 51 1021.7
20181021060604 47 152 0.0 0.0 0.00 0.00 0.00 52 1021.7
20181021060110 47 152 0.0 0.0 0.00 0.00 0.00 51 1021.7
20181021054604 48 152 0.0 0.0 0.00 0.00 0.00 50 1021.8